Location: ????????
(55.8351°N, 38.7040°E)
Time: 21:04:20
(UTC+00:00)

USA 229 - Pass Details

Date: 14 April 2024
Orbit: 890 x 1322 km, 63.4° (Epoch: 18 May)

Event Time Altitude Azimuth Distance (km) Brightness Sun altitude
Rises 01:34:39 0° 302° (WNW) 3,835 6.3 -6.9°
Reaches altitude 10° 01:37:13 10° 305° (NW) 2,939 5.8 -6.6°
Maximum altitude 01:44:14 66° 28° (NNE) 1,275 4.4 -5.7°
Drops below altitude 10° 01:52:01 10° 110° (ESE) 3,235 6.9 -4.7°
Sets 01:54:57 0° 114° (ESE) 4,244 7.5 -4.4°
